www.pogodaiklimat.ru

Погода и климат >> Архив погоды >> Бангладеш >> Sitakundu


ПОГОДА в Sitakundu

  • Прогноз погоды в Sitakundu
  • Монитор погоды в Sitakundu
  • Климат города

АРХИВ ПОГОДЫ в Sitakundu

Время (UTC), дата Ветер
(напр.,м/с)
 
Видим.   Явления Облачность Т
(С)
Тd
(С)
f
(%)
Тe
(С)
Тes
(С)
Комфортность P
(гПа)
Po
(гПа)
Тmin
(С)
Tmax
(С)
R
(мм)
R24
(мм)
S
(см)
00 19.02 штиль 0 1000 м дымка {туман} ясно +13.5 +13.5 100 +13 +13 1012.5 1011.6
03 19.02 штиль 0 1200 м дымка {туман} ясно +22.0 +14.0 60 +25 +35 комфорт 1014.0 1013.2 +13.0
06 19.02 штиль 0 4000 м мгла {туман} ясно +29.5 +17.0 47 +33 +54 опасность
солнечного
удара
1013.2 1012.4
09 19.02 СЗ 3 4500 м мгла {туман} ясно +30.5 +14.0 37 +32 +38 жарко 1010.7 1009.8
12 19.02 штиль 0 2000 м дымка {туман} ясно +23.2 +16.0 64 +28 +28 душно 1010.9 1010.1 +31.0
15 19.02 штиль 0 1500 м дымка {туман} ясно +18.0 +16.0 88 +18 +18 1012.5 1011.7
18 19.02 штиль 0 1200 м дымка {туман} ясно +17.0 +16.0 94 +17 +17 1012.6 1011.8
00 20.02 штиль 0 1000 м дымка {туман} ясно +14.3 +13.0 92 +14 +14 1013.0 1012.1
03 20.02 штиль 0 1500 м дымка {туман} ясно +23.5 +17.0 67 +27 +38 душно 1014.3 1013.5 +14.0
06 20.02 С 1 4000 м мгла {туман} 4/0
[Ci fib]
+30.5 +12.0 32 +31 +48 жарко 1012.3 1011.5
09 20.02 С 1 4500 м мгла {туман} 5/0
[Ci fib]
+31.0 +11.0 29 +31 +39 жарко 1009.5 1008.7
12 20.02 штиль 0 2000 м дымка {туман} ясно +24.0 +18.0 69 +28 +28 душно 1010.0 1009.1 +31.6
15 20.02 штиль 0 1500 м дымка {туман} ясно +19.0 +15.0 78 +20 +20 1011.1 1010.3
18 20.02 штиль 0 1500 м дымка {туман} ясно +19.0 +15.0 78 +20 +20 1011.1 1010.3
21 20.02 штиль 0 1000 м дымка {туман} ясно +16.0 +15.0 94 +16 +16 1010.8 1009.9
00 21.02 штиль 0 1000 м дымка {туман} ясно +15.0 +15.0 100 +15 +15 1010.6 1009.7
03 21.02 штиль 0 1500 м дымка {туман} ясно +24.5 +19.0 71 +29 +40 душно 1012.6 1011.8 +14.7
06 21.02 штиль 0 4000 м мгла {туман} ясно +30.0 +13.0 35 +31 +52 опасность
солнечного
удара
1011.5 1010.7
09 21.02 ЮЗ 1 4000 м мгла {туман} ясно +31.0 +11.0 29 +31 +40 жарко 1008.8 1008.0
12 21.02 штиль 0 1500 м дымка {туман} ясно +23.5 +21.0 86 +30 +30 очень
душно
1008.5 1007.7 +31.4
15 21.02 штиль 0 1500 м дымка {туман} ясно +19.5 +18.0 91 +22 +22 комфорт 1010.1 1009.3
18 21.02 штиль 0 1500 м дымка {туман} ясно +18.0 +17.0 94 +18 +18 1010.2 1009.4
00 22.02 штиль 0 1000 м дымка {туман} ясно +16.8 +16.0 95 +17 +17 1010.0 1009.1
03 22.02 штиль 0 1500 м дымка {туман} ясно +24.0 +19.0 74 +29 +40 душно 1012.0 1011.2 +16.6
06 22.02 З 1 3000 м дымка {туман} ясно +29.0 +19.0 55 +34 +53 опасность
солнечного
удара
1011.0 1010.1
09 22.02 ЮЗ 1 4500 м мгла {туман} ясно +30.0 +19.0 52 +35 +44 очень
душно
1008.2 1007.4
12 22.02 штиль 0 2000 м дымка {туман} ясно +24.5 +21.0 81 +31 +31 очень
душно
1008.5 1007.7 +30.7
15 22.02 штиль 0 1500 м дымка {туман} ясно +20.0 +20.0 100 +23 +23 комфорт 1010.4 1009.5
18 22.02 штиль 0 1500 м дымка {туман} ясно +19.8 +19.8 100 +23 +23 комфорт 1011.2 1010.4
21 22.02 штиль 0 1200 м дымка {туман} ясно +19.8 +19.8 100 +23 +23 комфорт 1011.2 1010.4
00 23.02 штиль 0 1000 м дымка {туман} ясно +19.8 +19.8 100 +23 +23 комфорт 1011.1 1010.3
03 23.02 штиль 0 1800 м дымка {туман} ясно +24.0 +21.0 83 +30 +41 очень
душно
1013.1 1012.2 +19.0
06 23.02 З 1 3000 м дымка {туман} ясно +27.3 +21.0 69 +34 +53 опасность
солнечного
удара
1012.2 1011.3
09 23.02 штиль 0 4000 м мгла {туман} ясно +29.5 +20.0 57 +36 +45 очень
душно
1009.7 1008.4
12 23.02 штиль 0 1500 м дымка {туман} ясно +24.0 +22.0 89 +31 +31 очень
душно
1010.2 1009.3 +30.1
15 23.02 штиль 0 1200 м дымка {туман} ясно +21.0 +20.0 94 +26 +26 душно 1012.2 1011.3
18 23.02 штиль 0 1500 м дымка {туман} ясно +20.0 +20.0 100 +23 +23 комфорт 1012.4 1011.5
21 23.02 штиль 0 1200 м дымка {туман} ясно +18.0 +18.0 100 +18 +18 1012.7 1011.9
00 24.02 штиль 0 1000 м дымка {туман} ясно +17.0 +17.0 100 +17 +17 1014.0 1013.1
03 24.02 штиль 0 1500 м дымка {туман} ясно +23.7 +21.0 85 +30 +41 очень
душно
1016.0 1015.1 +16.7
09 24.02 З 1 4500 м мгла {туман} ясно +32.5 +16.0 37 +35 +43 душно 1012.2 1011.4
12 24.02 штиль 0 1800 м дымка {туман} ясно +24.0 +17.0 65 +28 +28 душно 1012.5 1011.6 +32.8
15 24.02 штиль 0 1800 м дымка {туман} ясно +19.0 +17.0 88 +20 +20 1014.1 1013.2
18 24.02 штиль 0 1500 м дымка {туман} ясно +17.5 +17.0 97 +17 +17 1014.5 1013.6
00 25.02 штиль 0 1000 м дымка {туман} ясно +16.2 +16.0 99 +16 +16 1013.7 1012.9
06 25.02 З 1 4500 м мгла {туман} ясно +32.2 +12.0 29 +32 +52 опасность
солнечного
удара
1013.4 1012.5
09 25.02 З 1 5000 м мгла {туман} ясно +32.5 +15.0 35 +35 +44 душно 1011.0 1010.1
12 25.02 штиль 0 2000 м дымка {туман} ясно +25.0 +20.0 74 +31 +31 очень
душно
1010.9 1010.0 +33.3
15 25.02 штиль 0 1800 м дымка {туман} ясно +19.5 +17.0 85 +21 +21 комфорт 1011.4 1010.5
18 25.02 штиль 0 1800 м дымка {туман} ясно +18.5 +18.0 97 +19 +19 1011.6 1010.6

 

Местоположение метеостанции Sitakundu (Бангладеш): широта 22.58 долгота 91.70 высота над уровнем моря 44 м.

В архиве по умолчанию представлена погода в Sitakundu за последнюю неделю. Архивные данные за месяц целиком и за предыдущие месяцы, начиная с января 2011 года, Вы можете получить, выбрав интересующий диапазон дат из раскрывающегося списка и нажав кнопку "Ввод!".

Внимание! Время в таблицах - всемирное. Для получения местного времени необходимо прибавить поправку, которая в Sitakundu равна 6.5 ч.

Смотрите также архив погоды в соседних городах и на ближайших метеорологических станциях:

Погода в Sandwip (Бангладеш) (30 км)
Погода в Chittagong (Бангладеш) (37 км)
Погода в Rangamati (Бангладеш) (52 км)
Погода в Feni (Бангладеш) (58 км)
Погода в Hatia (Бангладеш) (64 км)
Погода в Maijdicourt (Бангладеш) (69 км)
Погода в Kutubdia (Бангладеш) (86 км)
Погода в Bhola (Бангладеш) (108 км)
Погода в Comilla (Бангладеш) (109 км)
Погода в Chandpur (Бангладеш) (128 км)

Пояснения к столбцам:

Ветер - указаны скорость ветра в м/с - средняя за 10 мин, порывы в срок и между сроками (в фигурных скобках) и направление, откуда дует ветер: С - северный, СВ - северо-восточный, В - восточный, ЮВ - юго-восточный, Ю - южный, ЮЗ - юго-западный, З - западный, СЗ - северо-западный.
Видимость - горизонтальная дальность видимости в метрах или километрах. При видимости от 1 до 10 км при отсутствии осадков обычно наблюдается дымка, при ухудшении видимости до 1 км и менее - туман. В сухую погоду видимость может ухудшаться дымом, пылью или мглою.
Явления - указаны атмосферные явления, наблюдавшиеся в срок или в последний час перед сроком; фигурными скобками обозначены явления, наблюдавшиеся между сроками (за 1-3 часа до срока); квадратными скобками обозначены град или гололедные отложения с указанием их диаметра в мм.
Облачность - указаны через наклонную черту общая и нижняя облачность в баллах и высота нижней границы облаков в метрах; квадратными скобками обозначены формы облаков: Ci - перистые, Cs - перисто-слоистые, Cc - перисто-кучевые, Ac - высококучевые, As - высокослоистые, Sc - слоисто-кучевые, Ns - слоисто-дождевые, Cu - кучевые, Cb - кучево-дождевые. Подробнее классификацию облаков см. в Атласе облаков (PDF).
T - Температура воздуха - температура, измеренная на высоте 2 м над землей.
Td - Температура точки росы - температура, при понижении до которой содержащийся в воздухе водяной пар достигнет насыщения.
f - Относительная влажность воздуха - влажноcть воздуха, измеренная на высоте 2 м над землей.
Te - Эффективная температура - температура, которую ощущает одетый по сезону человек в тени. Характеристика душности погоды. При расчете учитывается влияние влажности воздуха и скорости ветра на теплоощущения человека.
Tes - Эффективная температура на солнце - температура, которую ощущает человек, с поправкой на солнечный нагрев. Характеристика знойности погоды. Зависит от высоты солнца над горизонтом, облачности и скорости ветра. Ночью, в пасмурную погоду, а также при ветре 12 м/с и более поправка равна нулю.
P - Атмосферное давление - приведенное к уровню моря атмосферное давление.
Po - Атмосферное давление - измеренное на уровне метеостанции атмосферное давление.
Tmin - Минимальная температура - минимум температуры воздуха на высоте 2 м над землей.
Tmax - Максимальная температура - максимум температуры воздуха на высоте 2 м над землей.
R - Количество осадков - Количество выпавших осадков за период времени, мм. При наведении курсора мыши на число - период времени, за который выпало указанное количество осадков.
R24 - Количество осадков - Количество выпавших осадков за 24 часа, мм.
S - Снежный покров - Высота снежного покрова, см. При наведении курсора мыши на число - состояние снежного покрова и степень покрытия местности в баллах.